Location: D?uga
(50.2667°N, 19.7833°E)
Time: 02:05:14
(UTC+00:00)

Cosmos 2082 Rocket - Pass Details

Date: 23 May 2024
Orbit: 832 x 853 km, 71.0° (Epoch: 18 June)

Event Time Altitude Azimuth Distance (km) Brightness Sun altitude
Exits shadow 00:06:57 24° 222° (SW) 1,692 3.2 -16.4°
Maximum altitude 00:10:28 71° 302° (WNW) 906 2.3 -16.2°
Drops below altitude 10° 00:16:12 10° 26° (NNE) 2,492 6.0 -15.8°
Sets 00:18:41 0° 29° (NNE) 3,430 7.2 -15.7°
